Regional Weather Roundup
Issued by NWS Kansas City/Pleasant Hill, MO

Home | Current Version | Previous Version | Graphics & Text | Print | Product List | Glossary Off
Versions: 1 2 3 4 5 6 7 8 9 10 11 12 13 14 15 16 17 18 19 20 21 22 23 24 25 26 27 28 29 30 31 32 33 34 35 36 37 38 39 40 41 42 43 44 45 46 47 48 49 50

000
ASUS43 KEAX 271110
RWREAX

WEATHER ROUNDUP FOR EASTERN KANSAS AND NORTHWEST MISSOURI
NATIONAL WEATHER SERVICE KANSAS CITY/PLEASANT HILL MO
600 AM CDT WED AUG 27 2014

KSZ040-057-103>105-MOZ028-029-037-043-271200-
...KANSAS CITY METROPOLITAN AREA...

CITY           SKY/WX    TMP DP  RH WIND       PRES   REMARKS
K.C. INTL      MOCLDY    74  72  93 SE6       30.07R
K.C. DOWNTOWN  MOCLDY    76  72  87 E3        30.05R
LEES SUMMIT    CLEAR     73  71  93 SE3       30.07R
OLATHE - IXD   CLEAR     71  67  87 S6        30.08R
OLATHE - OJC   CLEAR     72  70  93 SE5       30.07R
LAWRENCE       PTCLDY    75  70  84 SE5       30.06R

$$

MOZ001>008-011>017-020>025-030>033-038>040-044>046-053-054-271200-
...NORTHERN AND CENTRAL MISSOURI...

CITY           SKY/WX    TMP DP  RH WIND       PRES   REMARKS
ST. JOSEPH     MOCLDY    73  70  90 N16       30.10R
MOSBY          PTSUNNY   72  72 100 CALM      30.06R
WHITEMAN AFB   CLEAR     70  53  55 E3        30.05F
CLINTON        CLEAR     68  68 100 CALM      30.06F
SEDALIA        CLEAR     71  67  87 SE5       30.06F
WARSAW         NOT AVBL
MARSHALL       CLEAR     73  73 100 CALM      30.07S
CHILLICOTHE      N/A     71  68  90 CALM      30.08S
MOBERLY        CLEAR     70  66  88 NE5       30.08F
KIRKSVILLE     CLEAR     69  67  93 NE7       30.10F

$$

MOZ041-047>049-056>058-063>065-088>090-097-271200-
...EASTERN AND SOUTHERN MISSOURI...

CITY           SKY/WX    TMP DP  RH WIND       PRES   REMARKS
ST. LOUIS INTL PTCLDY    76  69  79 CALM      30.07S
SPIRIT OF STL  CLEAR     72  69  90 CALM      30.05S
COLUMBIA       FOG       72  71  97 E3        30.07S VSB 1/2
JEFFERSON CITY CLEAR     71  69  93 CALM      30.06S
MEXICO           N/A    N/A N/A N/A CALM      30.07F FOG
ROLLA          CLEAR     71  66  84 SW8       30.07F
LEBANON        CLEAR     73  68  83 SW3       30.10S
OSAGE BEACH    CLEAR     68  64  88 CALM      30.07S
SPRINGFIELD    CLEAR     71  66  84 S5        30.09S
BRANSON        PTCLDY    70  68  94 CALM      30.12S
NEVADA         CLEAR     70  66  88 CALM      30.07F
JOPLIN         CLEAR     73  67  81 VRB5      30.07F
WEST PLAINS    CLEAR     69  66  90 CALM      30.12R

$$

IAZ060-094-KSZ022-034>040-054-083-096-NEZ052-066-093-271200-
...KANSAS...SOUTHEAST NEBRASKA AND IOWA...

CITY           SKY/WX    TMP DP  RH WIND       PRES   REMARKS
TOPEKA         CLEAR     76  72  87 SE3       30.05S
MANHATTAN      PTCLDY    73  70  90 CALM      30.04S
EMPORIA        CLEAR     72  67  84 S6        30.06R
CHANUTE        CLEAR     72  67  84 SE9       30.06S
WICHITA        MOCLDY    73  67  81 NW5       30.08R
OMAHA          MOCLDY    68  64  87 VRB6      30.09R
LINCOLN        CLOUDY    69  66  90 E3        30.08S
FALLS CITY     CLOUDY    72  66  81 E8        30.10R THUNDER
LAMONI         TSTM      68  66  93 NE9       30.10S
DES MOINES     MOCLDY    69  61  75 E8        30.12R

$$




USA.gov is the U.S. government's official web portal to all federal, state and local government web resources and services.